Change the Weather History Date:

Tuesday, December 24, 2013

  Actual Average (CYWH) Record (CYWH)
Temperature  
Mean Temperature 40 °F -  
Max Temperature 45 °F 43 °F 57 °F (2005)
Min Temperature 35 °F 38 °F 33 °F (1996)
Degree Days  
Heating Degree Days 24    
Moisture  
Dew Point 36 °F    
Average Humidity 82    
Maximum Humidity 94    
Minimum Humidity 66    
Precipitation  
Precipitation 0.00 in - - ()
Sea Level Pressure  
Sea Level Pressure 30.56 in    
Wind  
Wind Speed 4 mph ()    
Max Wind Speed 8 mph    
Max Gust Speed -    
Averages and records for this station are not official NWS values.
T = Trace of Precipitation, MM = Missing Value Source: Averaged Metar Reports

Daily Weather History Graph

Daily Weather History Graph

Search for Another Location

Airport or City:

Trip Planner

Search our weather history database for the weather conditions in past years. The results will help you decide how hot, cold, wet, or windy it might be!

Date:

Astronomy

Dec. 24, 2013 Rise Set
Actual Time 8:04 AM PST 4:23 PM PST
Civil Twilight 7:27 AM PST 4:59 PM PST
Nautical Twilight 6:47 AM PST 5:40 PM PST
Astronomical Twilight 6:09 AM PST 6:18 PM PST
Moon No Moon Rise 11:29 AM PST (12/24)
Length of Visible Light 9h 32m
Length of Day
8h 19m
Waning Gibbous, 57% of the Moon is Illuminated
Dec 24
Waning Gibbous
Dec 25
Last Quarter
Jan 1
New
Jan 7
First Quarter
Jan 15
Full

Hourly Weather History & Observations

Time (PST) Temp. Windchill Dew Point Humidity Pressure Visibility Wind Dir Wind Speed Gust Speed Precip Events Conditions
12:00 AM 44.6 °F 43.1 °F 39.6 °F 82% 30.50 in - South 3.5 mph - N/A   Unknown
1:00 AM 44.6 °F 40.7 °F 39.9 °F 84% 30.51 in - SSW 6.9 mph - N/A   Unknown
2:00 AM 44.2 °F 41.8 °F 37.9 °F 79% 30.52 in - SSW 4.6 mph - N/A   Unknown
3:00 AM 43.5 °F 40.1 °F 37.8 °F 80% 30.53 in - South 5.8 mph - N/A   Unknown
4:00 AM 44.1 °F 40.8 °F 38.1 °F 80% 30.54 in - South 5.8 mph - N/A   Unknown
5:00 AM 43.9 °F 39.9 °F 39.4 °F 84% 30.56 in - South 6.9 mph - N/A   Unknown
6:00 AM 39.6 °F - 35.4 °F 85% 30.56 in - NNW 1.2 mph - N/A   Unknown
7:00 AM 42.6 °F 39.9 °F 38.8 °F 86% 30.57 in - SW 4.6 mph - N/A   Unknown
8:00 AM 42.3 °F 39.4 °F 37.8 °F 84% 30.58 in - SW 4.6 mph - N/A   Unknown
9:00 AM 42.8 °F 39.3 °F 37.2 °F 81% 30.59 in - SSW 5.8 mph - N/A   Unknown
10:00 AM 41.7 °F - 37.0 °F 83% 30.60 in - Calm Calm - N/A   Unknown
11:00 AM 39.6 °F 37.4 °F 36.1 °F 88% 30.60 in - North 3.5 mph - N/A   Unknown
12:00 PM 43.3 °F - 37.8 °F 81% 30.59 in - West 1.2 mph - N/A   Unknown
1:00 PM 45.9 °F 42.3 °F 34.9 °F 66% 30.58 in - SW 6.9 mph - N/A   Unknown
2:00 PM 43.7 °F 39.1 °F 34.9 °F 71% 30.58 in - SW 8.1 mph - N/A   Unknown
3:00 PM 44.6 °F 43.1 °F 33.8 °F 66% 30.58 in - WSW 3.5 mph - N/A   Unknown
4:00 PM 44.1 °F 40.8 °F 34.7 °F 70% 30.58 in - South 5.8 mph - N/A   Unknown
5:00 PM 41.7 °F 39.8 °F 34.7 °F 76% 30.58 in - West 3.5 mph - N/A   Unknown
6:00 PM 39.0 °F - 36.1 °F 89% 30.57 in - NNE 2.3 mph - N/A   Unknown
7:00 PM 38.1 °F - 35.2 °F 89% 30.56 in - North 2.3 mph - N/A   Unknown
8:00 PM 36.9 °F 33.1 °F 34.7 °F 92% 30.56 in - NNW 4.6 mph - N/A   Unknown
9:00 PM 36.5 °F 32.7 °F 34.7 °F 93% 30.56 in - North 4.6 mph - N/A   Unknown
10:00 PM 36.0 °F - 34.3 °F 94% 30.56 in - North 2.3 mph - N/A   Unknown
11:00 PM 35.8 °F 33.0 °F 34.3 °F 94% 30.56 in - North 3.5 mph - N/A   Unknown